Total_Precipitation_Accumulation
1.71 1.79 1.83 1.87 1.77 1.87 2.06 2.28 2.20 2.27 2.34 2.14 1.86 1.73 1.77 1.79 1.85 1.81 1.76 1.97 1.87 1.86 2.31 2.42 2.17 1.90 1.75 1.50 1.26 1.05 0.96 0.89 0.77 0.60 0.50 0.55 0.64 0.71 0.64 0.55 0.51 0.47 0.40
2.10 2.06 1.91 1.91 1.84 1.88 1.96 2.13 2.24 2.55 2.52 2.43 2.02 1.83 1.86 1.94 1.94 2.02 1.95 2.22 2.08 1.83 2.05 2.29 2.39 2.23 2.01 1.82 1.57 1.35 1.18 1.07 0.91 0.66 0.54 0.51 0.57 0.67 0.65 0.65 0.59 0.54 0.45
2.27 2.21 2.09 1.92 1.96 1.99 2.10 2.13 2.25 2.52 2.51 2.39 2.16 2.01 1.93 1.78 1.66 1.72 1.79 1.97 1.90 1.77 1.83 2.02 2.27 2.33 2.23 2.13 1.98 1.81 1.52 1.28 1.09 0.84 0.65 0.53 0.45 0.51 0.53 0.57 0.58 0.56 0.47
2.31 2.31 2.12 1.91 2.07 2.03 2.11 2.31 2.40 2.54 2.69 2.69 2.40 2.14 1.98 1.82 1.62 1.59 1.54 1.55 1.70 1.43 1.62 1.83 2.01 2.14 2.40 2.51 2.54 2.53 2.14 1.65 1.28 1.05 0.85 0.67 0.53 0.47 0.43 0.44 0.48 0.45 0.37
2.24 2.29 2.08 1.99 2.12 2.25 2.24 2.09 2.46 2.70 2.74 2.77 2.35 2.15 1.82 1.65 1.48 1.36 1.39 1.27 1.33 1.34 1.38 1.46 1.61 1.73 2.20 2.73 3.04 3.11 2.88 2.28 1.69 1.36 1.19 1.02 0.83 0.67 0.50 0.42 0.42 0.37 0.31
2.09 2.31 1.99 1.98 2.18 2.33 2.30 2.34 2.64 2.77 2.64 2.74 2.36 2.01 1.63 1.29 1.21 1.12 1.04 1.03 1.00 0.90 0.98 1.24 1.55 1.43 1.82 2.30 2.61 2.84 3.07 2.90 2.30 1.74 1.52 1.38 1.23 1.01 0.75 0.58 0.51 0.48 0.39
2.26 2.54 2.22 2.30 2.27 2.23 2.22 2.40 2.59 2.51 2.35 2.73 2.77 2.12 1.45 1.07 0.96 0.78 0.77 0.76 0.69 0.72 0.94 1.27 1.47 1.55 1.42 1.49 1.68 2.01 2.53 2.91 2.81 2.31 1.96 1.76 1.62 1.31 0.98 0.81 0.65 0.56 0.48
2.35 2.34 2.38 2.26 2.28 2.30 2.12 2.18 2.42 2.31 1.98 2.34 2.58 2.55 1.90 1.43 1.00 0.60 0.61 0.60 0.62 0.76 0.83 0.92 1.21 1.50 1.45 1.58 1.40 1.34 1.85 2.43 2.83 2.80 2.48 2.08 1.75 1.41 1.18 1.04 0.85 0.69 0.56
2.39 2.39 2.22 2.09 2.13 2.05 1.96 1.93 2.11 2.21 2.01 1.97 2.28 2.63 2.16 1.60 1.24 0.80 0.71 0.69 0.82 1.00 0.98 1.02 1.10 1.28 1.38 1.58 1.71 1.63 1.46 1.64 2.25 2.95 2.98 2.43 1.80 1.39 1.21 1.20 1.18 0.96 0.76
2.64 2.42 2.20 2.01 1.87 1.77 1.80 1.59 1.79 1.95 2.01 1.70 1.83 1.92 1.81 1.79 1.73 1.28 0.93 0.83 1.01 1.07 1.09 1.10 1.12 1.27 1.34 1.54 1.72 1.67 1.33 1.19 1.46 2.29 2.80 2.70 2.17 1.60 1.32 1.38 1.69 1.60 1.19
2.71 2.39 2.22 2.07 1.89 1.74 1.64 1.55 1.70 1.64 1.65 1.53 1.62 1.65 1.67 1.66 1.57 1.52 1.27 1.14 1.08 0.85 0.86 0.93 1.11 1.40 1.46 1.54 1.76 1.64 1.49 1.43 1.38 1.53 1.84 2.09 2.18 1.93 1.66 1.69 2.13 2.39 2.14
2.31 2.11 1.98 1.87 1.72 1.69 1.66 1.57 1.56 1.52 1.52 1.57 1.57 1.52 1.60 1.63 1.61 1.67 1.48 1.33 1.21 0.96 0.91 0.93 1.03 1.21 1.31 1.37 1.38 1.45 1.45 1.39 1.28 1.24 1.28 1.39 1.58 1.79 1.93 2.12 2.52 2.88 3.03
1.60 1.55 1.59 1.58 1.50 1.47 1.41 1.44 1.41 1.38 1.44 1.51 1.47 1.46 1.53 1.55 1.59 1.68 1.63 1.36 1.28 1.12 1.14 1.05 0.97 1.10 1.12 1.27 1.35 1.27 1.10 1.08 0.96 0.92 0.96 1.02 1.17 1.36 1.52 1.72 2.13 2.59 2.96
1.34 1.38 1.44 1.42 1.37 1.36 1.30 1.39 1.28 1.22 1.25 1.28 1.25 1.49 1.52 1.36 1.48 1.61 1.65 1.63 1.53 1.42 1.47 1.30 1.09 1.06 1.13 1.20 1.21 1.15 1.02 0.91 0.75 0.68 0.67 0.70 0.77 0.93 1.12 1.31 1.54 1.77 2.04
1.36 1.39 1.34 1.36 1.36 1.41 1.44 1.46 1.34 1.27 1.37 1.32 1.28 1.45 1.47 1.40 1.44 1.51 1.66 1.76 1.85 1.75 1.65 1.51 1.25 1.16 1.18 1.16 1.24 1.13 1.15 1.01 0.73 0.62 0.60 0.60 0.58 0.62 0.73 0.92 1.09 1.25 1.48
1.46 1.49 1.42 1.43 1.44 1.42 1.44 1.43 1.26 1.25 1.39 1.44 1.50 1.62 1.57 1.49 1.52 1.56 1.71 1.89 2.05 2.01 1.75 1.38 1.27 1.27 1.33 1.25 1.30 1.09 1.06 1.12 0.91 0.71 0.63 0.61 0.60 0.62 0.66 0.78 0.91 1.03 1.18
1.43 1.44 1.42 1.42 1.39 1.36 1.38 1.39 1.26 1.35 1.44 1.46 1.45 1.56 1.62 1.64 1.65 1.67 1.81 1.87 2.01 2.20 1.99 1.58 1.48 1.53 1.64 1.61 1.49 1.28 1.11 1.05 0.93 0.85 0.70 0.64 0.62 0.64 0.69 0.74 0.85 0.95 1.01
1.45 1.48 1.49 1.48 1.36 1.37 1.50 1.50 1.43 1.51 1.55 1.52 1.52 1.59 1.52 1.62 1.76 1.74 1.85 1.84 1.88 2.11 2.05 1.85 1.77 1.78 1.85 1.80 1.76 1.54 1.21 1.07 1.01 0.94 0.76 0.67 0.65 0.64 0.65 0.65 0.72 0.85 0.96
1.56 1.60 1.63 1.67 1.63 1.63 1.61 1.64 1.72 1.70 1.60 1.50 1.54 1.53 1.51 1.64 1.68 1.75 1.84 1.77 1.73 1.84 2.00 1.99 1.96 2.05 2.08 1.95 1.85 1.67 1.47 1.39 1.13 1.03 0.92 0.81 0.76 0.73 0.71 0.70 0.72 0.80 0.92
1.61 1.65 1.71 1.86 1.99 2.02 1.99 1.91 1.83 1.75 1.66 1.60 1.56 1.52 1.53 1.56 1.57 1.61 1.67 1.69 1.74 1.86 1.99 2.04 2.10 2.27 2.28 2.31 2.24 1.97 1.82 1.76 1.47 1.14 1.10 1.01 0.94 0.86 0.79 0.72 0.72 0.77 0.86
1.54 1.79 1.95 2.03 2.24 2.36 2.23 2.23 2.12 2.01 1.97 1.81 1.69 1.59 1.50 1.48 1.50 1.51 1.45 1.52 1.67 1.80 1.80 1.85 1.93 2.14 2.25 2.37 2.33 2.12 1.98 1.96 1.80 1.44 1.32 1.22 1.17 1.07 1.01 0.95 0.84 0.77 0.81
1.44 1.61 1.77 1.87 1.89 1.76 1.93 1.95 1.91 1.93 1.94 1.83 1.78 1.72 1.56 1.42 1.37 1.31 1.21 1.23 1.32 1.41 1.56 1.74 1.78 1.96 2.15 2.28 2.41 2.47 2.32 2.15 2.04 1.81 1.71 1.57 1.35 1.28 1.14 1.01 0.94 0.77 0.69
1.38 1.48 1.54 1.61 1.58 1.62 1.62 1.44 1.40 1.39 1.51 1.59 1.65 1.64 1.42 1.28 1.34 1.25 1.24 1.20 1.18 1.25 1.33 1.53 1.68 1.74 1.97 2.16 2.37 2.53 2.53 2.44 2.28 2.13 2.03 1.88 1.57 1.39 1.20 1.08 0.99 0.78 0.65
1.45 1.44 1.48 1.51 1.58 1.54 1.44 1.24 1.24 1.19 1.28 1.37 1.46 1.49 1.45 1.37 1.36 1.40 1.34 1.24 1.15 1.19 1.26 1.26 1.30 1.45 1.70 2.06 2.27 2.31 2.43 2.42 2.31 2.18 2.13 2.08 1.83 1.63 1.43 1.28 1.17 0.90 0.74
1.65 1.58 1.59 1.64 1.62 1.59 1.48 1.26 1.24 1.18 1.25 1.31 1.36 1.37 1.38 1.31 1.35 1.26 1.20 1.19 1.19 1.21 1.16 1.11 1.10 1.17 1.33 1.56 1.92 2.06 2.13 2.08 1.97 1.75 1.65 1.71 1.68 1.63 1.57 1.44 1.27 1.10 0.91
2.01 2.00 1.88 1.79 1.70 1.62 1.56 1.28 1.22 1.17 1.23 1.29 1.37 1.35 1.29 1.17 1.13 1.07 1.06 1.17 1.14 1.11 1.15 1.11 1.05 1.01 1.00 1.15 1.44 1.63 1.69 1.72 1.62 1.58 1.34 1.31 1.32 1.37 1.49 1.38 1.24 1.17 1.09